BTK6012 WAAA-WAMG

Flight info

Callsign BTK6012
Flight time 1h 16m
Altitude 39000
Route NIVEK W51 GTL
Aircraft A320/M-SDFGHIRWY/EB2

Departure

Time 2026-04-20 01:13
Airport Sultan Hasanuddin International Airport (WAAA)

Arrival

Time 2026-04-20 02:29
Airport Jalaluddin Airport (WAMG)
Time Latitude Longitude Altitude Speed Heading
2026-04-20 01:02 -5.07774 119.54812 39 ft 1 kts 210°
2026-04-20 01:05 -5.07790 119.54802 40 ft 7 kts 210°
2026-04-20 01:05 -5.07848 119.54768 41 ft 12 kts 210°
2026-04-20 01:05 -5.07936 119.54717 41 ft 16 kts 210°
2026-04-20 01:05 -5.07991 119.54686 41 ft 5 kts 210°
2026-04-20 01:06 -5.08081 119.54635 41 ft 23 kts 209°
2026-04-20 01:06 -5.08197 119.54571 41 ft 14 kts 210°
2026-04-20 01:06 -5.08301 119.54509 41 ft 20 kts 210°
2026-04-20 01:06 -5.08390 119.54450 41 ft 10 kts 211°
2026-04-20 01:07 -5.08473 119.54404 41 ft 17 kts 208°
2026-04-20 01:07 -5.08537 119.54374 41 ft 1 kts 178°
2026-04-20 01:07 -5.08539 119.54379 41 ft 2 kts 127°
2026-04-20 01:07 -5.08526 119.54414 41 ft 11 kts 67°
2026-04-20 01:08 -5.08545 119.54483 39 ft 11 kts 130°
2026-04-20 01:08 -5.08589 119.54552 41 ft 7 kts 141°
2026-04-20 01:08 -5.08629 119.54544 39 ft 8 kts 197°
2026-04-20 01:08 -5.08692 119.54512 41 ft 12 kts 215°
2026-04-20 01:09 -5.08777 119.54464 40 ft 14 kts 208°
2026-04-20 01:09 -5.08873 119.54410 40 ft 19 kts 208°
2026-04-20 01:09 -5.08907 119.54392 41 ft 4 kts 208°
2026-04-20 01:09 -5.08949 119.54369 41 ft 10 kts 208°
2026-04-20 01:10 -5.09028 119.54327 41 ft 16 kts 208°
2026-04-20 01:10 -5.09105 119.54272 24 ft 9 kts 218°
2026-04-20 01:10 -5.09169 119.54222 41 ft 14 kts 218°
2026-04-20 01:11 -5.09209 119.54199 41 ft 0 kts 173°
2026-04-20 01:11 -5.09215 119.54206 41 ft 3 kts 137°
2026-04-20 01:11 -5.09212 119.54232 41 ft 11 kts 80°
2026-04-20 01:11 -5.09194 119.54324 41 ft 14 kts 82°
2026-04-20 01:12 -5.09198 119.54353 41 ft 3 kts 102°
2026-04-20 01:12 -5.09205 119.54395 40 ft 10 kts 94°
2026-04-20 01:12 -5.09033 119.54516 43 ft 67 kts 26°
2026-04-20 01:12 -5.08331 119.54924 39 ft 160 kts 29°
2026-04-20 01:13 -5.07608 119.55322 300 ft 185 kts 29°
2026-04-20 01:13 -5.06065 119.56049 1835 ft 189 kts 13°
2026-04-20 01:13 -5.04744 119.56099 3114 ft 196 kts 350°
2026-04-20 01:13 -5.03861 119.55823 3901 ft 205 kts 336°
2026-04-20 01:14 -5.02400 119.55271 4585 ft 247 kts 354°
2026-04-20 01:14 -5.00575 119.55086 5517 ft 270 kts
2026-04-20 01:14 -4.98690 119.55278 6750 ft 270 kts
2026-04-20 01:14 -4.96846 119.55564 7925 ft 274 kts
2026-04-20 01:15 -4.94916 119.55625 9034 ft 282 kts 356°
2026-04-20 01:15 -4.92940 119.55339 10056 ft 290 kts 350°
2026-04-20 01:15 -4.90173 119.54805 10905 ft 321 kts 349°
2026-04-20 01:15 -4.88647 119.54499 11248 ft 338 kts 349°
2026-04-20 01:16 -4.86302 119.54029 11871 ft 355 kts 349°
2026-04-20 01:16 -4.83843 119.53542 12876 ft 360 kts 349°
2026-04-20 01:16 -4.81375 119.52950 13775 ft 366 kts 342°
2026-04-20 01:16 -4.79045 119.52086 14510 ft 371 kts 339°
2026-04-20 01:17 -4.76617 119.51149 15287 ft 375 kts 338°
2026-04-20 01:17 -4.74163 119.50194 16054 ft 380 kts 338°
2026-04-20 01:17 -4.71671 119.49228 16803 ft 385 kts 338°
2026-04-20 01:17 -4.69182 119.48272 17512 ft 389 kts 339°
2026-04-20 01:18 -4.66625 119.47296 18210 ft 394 kts 339°
2026-04-20 01:18 -4.64047 119.46323 18826 ft 398 kts 339°
2026-04-20 01:18 -4.61434 119.45349 19441 ft 402 kts 339°
2026-04-20 01:18 -4.58791 119.44360 20046 ft 406 kts 339°
2026-04-20 01:19 -4.56163 119.43368 20661 ft 410 kts 339°
2026-04-20 01:19 -4.53483 119.42351 21233 ft 414 kts 339°
2026-04-20 01:19 -4.50771 119.41318 21831 ft 417 kts 339°
2026-04-20 01:19 -4.48037 119.40275 22398 ft 422 kts 339°
2026-04-20 01:20 -4.45283 119.39225 22974 ft 426 kts 339°
2026-04-20 01:20 -4.42532 119.38176 23519 ft 430 kts 339°
2026-04-20 01:20 -4.39713 119.37101 24001 ft 433 kts 339°
2026-04-20 01:20 -4.36885 119.36023 24513 ft 435 kts 339°
2026-04-20 01:21 -4.34071 119.34950 24994 ft 438 kts 339°
2026-04-20 01:21 -4.31218 119.33862 25465 ft 441 kts 339°
2026-04-20 01:21 -4.28344 119.32768 25938 ft 443 kts 340°
2026-04-20 01:21 -4.25443 119.31662 26383 ft 446 kts 340°
2026-04-20 01:22 -4.22522 119.30550 26827 ft 449 kts 340°
2026-04-20 01:22 -4.19589 119.29433 27258 ft 452 kts 340°
2026-04-20 01:22 -4.16637 119.28308 27690 ft 455 kts 340°
2026-04-20 01:22 -4.13704 119.27192 28094 ft 458 kts 340°
2026-04-20 01:23 -4.10710 119.26053 28505 ft 460 kts 340°
2026-04-20 01:23 -4.07707 119.24909 28904 ft 463 kts 340°
2026-04-20 01:23 -4.04717 119.23772 29274 ft 466 kts 340°
2026-04-20 01:23 -4.01674 119.22614 29673 ft 469 kts 340°
2026-04-20 01:24 -3.98607 119.21447 30059 ft 471 kts 340°
2026-04-20 01:24 -3.95568 119.20291 30394 ft 474 kts 340°
2026-04-20 01:24 -3.92466 119.19112 30757 ft 476 kts 340°
2026-04-20 01:24 -3.89359 119.17931 31115 ft 478 kts 340°
2026-04-20 01:25 -3.86241 119.16745 31572 ft 478 kts 340°
2026-04-20 01:25 -3.83162 119.15574 32052 ft 476 kts 340°
2026-04-20 01:25 -3.80062 119.14396 32526 ft 475 kts 340°
2026-04-20 01:25 -3.76992 119.13229 32986 ft 475 kts 340°
2026-04-20 01:26 -3.73903 119.12055 33455 ft 473 kts 340°
2026-04-20 01:26 -3.70818 119.10883 33907 ft 473 kts 341°
2026-04-20 01:26 -3.67724 119.09707 34289 ft 472 kts 341°
2026-04-20 01:26 -3.64690 119.08554 34656 ft 472 kts 341°
2026-04-20 01:27 -3.61617 119.07387 35012 ft 471 kts 341°
2026-04-20 01:27 -3.58544 119.06220 35372 ft 471 kts 341°
2026-04-20 01:27 -3.55473 119.05053 35723 ft 471 kts 341°
2026-04-20 01:27 -3.52450 119.03905 36092 ft 470 kts 341°
2026-04-20 01:28 -3.49384 119.02740 36466 ft 470 kts 341°
2026-04-20 01:28 -3.46321 119.01577 36839 ft 469 kts 341°
2026-04-20 01:28 -3.43268 119.00417 37197 ft 469 kts 341°
2026-04-20 01:28 -3.40207 118.99255 37550 ft 468 kts 341°
2026-04-20 01:29 -3.37188 118.98109 37894 ft 468 kts 341°
2026-04-20 01:29 -3.34284 118.97007 38219 ft 467 kts 341°
2026-04-20 01:29 -3.31158 118.95820 38571 ft 467 kts 341°
2026-04-20 01:29 -3.28105 118.94661 38849 ft 466 kts 341°
2026-04-20 01:30 -3.22088 118.92376 38953 ft 463 kts 341°
2026-04-20 01:30 -3.16028 118.90077 38954 ft 463 kts 341°
2026-04-20 01:31 -3.10009 118.87793 38953 ft 464 kts 341°
2026-04-20 01:31 -3.03995 118.85511 38953 ft 463 kts 341°
2026-04-20 01:32 -2.97962 118.83222 38963 ft 463 kts 341°
2026-04-20 01:32 -2.92086 118.80993 38959 ft 464 kts 341°
2026-04-20 01:33 -2.86039 118.78699 38957 ft 464 kts 341°
2026-04-20 01:33 -2.80025 118.76418 38958 ft 464 kts 341°
2026-04-20 01:34 -2.73952 118.74233 38958 ft 462 kts 347°
2026-04-20 01:34 -2.67632 118.73606 38944 ft 457 kts
2026-04-20 01:35 -2.61466 118.74945 38937 ft 451 kts 24°
2026-04-20 01:35 -2.56049 118.77980 38946 ft 447 kts 36°
2026-04-20 01:36 -2.50890 118.81428 38938 ft 448 kts 36°
2026-04-20 01:36 -2.45675 118.84898 38947 ft 448 kts 36°
2026-04-20 01:37 -2.40506 118.88339 38947 ft 448 kts 36°
2026-04-20 01:37 -2.35344 118.91776 38948 ft 449 kts 36°
2026-04-20 01:38 -2.30157 118.95231 38949 ft 449 kts 36°
2026-04-20 01:38 -2.25081 118.98611 38951 ft 449 kts 36°
2026-04-20 01:39 -2.19850 119.02094 38948 ft 449 kts 36°
2026-04-20 01:39 -2.14656 119.05552 38953 ft 450 kts 36°
2026-04-20 01:40 -2.09441 119.09024 38952 ft 450 kts 36°
2026-04-20 01:40 -2.04259 119.12473 38953 ft 450 kts 36°
2026-04-20 01:41 -1.99035 119.15949 38952 ft 450 kts 36°
2026-04-20 01:41 -1.93818 119.19420 38953 ft 450 kts 36°
2026-04-20 01:42 -1.88646 119.22862 38954 ft 450 kts 36°
2026-04-20 01:42 -1.83418 119.26339 38949 ft 450 kts 36°
2026-04-20 01:43 -1.78204 119.29809 38960 ft 450 kts 36°
2026-04-20 01:43 -1.72999 119.33273 38953 ft 450 kts 36°
2026-04-20 01:44 -1.67806 119.36727 38955 ft 450 kts 36°
2026-04-20 01:44 -1.62616 119.40180 38954 ft 450 kts 36°
2026-04-20 01:45 -1.57400 119.43649 38953 ft 450 kts 36°
2026-04-20 01:45 -1.52178 119.47122 38961 ft 450 kts 36°
2026-04-20 01:46 -1.46988 119.50575 38966 ft 450 kts 36°
2026-04-20 01:46 -1.41761 119.54052 38973 ft 450 kts 36°
2026-04-20 01:47 -1.36547 119.57520 38969 ft 449 kts 36°
2026-04-20 01:47 -1.31361 119.60969 38979 ft 449 kts 36°
2026-04-20 01:48 -1.26149 119.64434 38981 ft 449 kts 36°
2026-04-20 01:48 -1.20965 119.67882 38975 ft 449 kts 36°
2026-04-20 01:49 -1.15740 119.71356 38978 ft 449 kts 36°
2026-04-20 01:49 -1.10558 119.74802 38984 ft 449 kts 36°
2026-04-20 01:50 -1.05353 119.78263 38982 ft 449 kts 35°
2026-04-20 01:50 -1.00160 119.81715 38986 ft 449 kts 35°
2026-04-20 01:51 -0.94953 119.85176 38981 ft 449 kts 35°
2026-04-20 01:51 -0.90108 119.89036 38980 ft 446 kts 47°
2026-04-20 01:52 -0.86284 119.93889 38981 ft 443 kts 60°
2026-04-20 01:52 -0.83415 119.99306 38981 ft 442 kts 64°
2026-04-20 01:53 -0.80580 120.04778 38979 ft 442 kts 64°
2026-04-20 01:53 -0.77765 120.10208 38974 ft 442 kts 64°
2026-04-20 01:54 -0.74933 120.15677 38974 ft 442 kts 64°
2026-04-20 01:54 -0.72117 120.21118 38971 ft 442 kts 64°
2026-04-20 01:55 -0.69294 120.26571 38967 ft 443 kts 64°
2026-04-20 01:55 -0.66458 120.32050 38963 ft 443 kts 64°
2026-04-20 01:56 -0.63618 120.37537 38963 ft 443 kts 64°
2026-04-20 01:56 -0.60801 120.42978 38960 ft 444 kts 64°
2026-04-20 01:57 -0.57961 120.48463 38960 ft 443 kts 64°
2026-04-20 01:57 -0.55119 120.53953 38962 ft 444 kts 64°
2026-04-20 01:58 -0.52293 120.59411 38955 ft 444 kts 64°
2026-04-20 01:58 -0.49466 120.64871 38963 ft 444 kts 64°
2026-04-20 01:59 -0.46625 120.70358 38959 ft 444 kts 64°
2026-04-20 01:59 -0.43784 120.75846 38957 ft 444 kts 64°
2026-04-20 02:00 -0.40961 120.81299 38958 ft 444 kts 64°
2026-04-20 02:00 -0.38122 120.86781 38959 ft 444 kts 64°
2026-04-20 02:01 -0.35291 120.92249 38958 ft 444 kts 64°
2026-04-20 02:01 -0.32925 120.96817 38959 ft 444 kts 64°
2026-04-20 02:02 -0.31054 121.00429 38961 ft 432 kts 64°
2026-04-20 02:02 -0.30130 121.02212 38948 ft 421 kts 64°
2026-04-20 02:02 -0.28823 121.04731 38950 ft 404 kts 64°
2026-04-20 02:02 -0.27552 121.07185 38939 ft 388 kts 64°
2026-04-20 02:03 -0.26329 121.09545 38920 ft 377 kts 64°
2026-04-20 02:03 -0.25118 121.11888 38922 ft 383 kts 64°
2026-04-20 02:03 -0.22654 121.16655 38939 ft 389 kts 64°
2026-04-20 02:04 -0.20171 121.21450 38932 ft 390 kts 64°
2026-04-20 02:04 -0.17644 121.26332 38940 ft 405 kts 64°
2026-04-20 02:05 -0.15003 121.31434 38945 ft 419 kts 64°
2026-04-20 02:05 -0.12283 121.36686 38955 ft 434 kts 64°
2026-04-20 02:06 -0.09474 121.42109 38958 ft 446 kts 64°
2026-04-20 02:06 -0.06613 121.47630 38961 ft 448 kts 64°
2026-04-20 02:07 -0.03746 121.53167 38958 ft 455 kts 64°
2026-04-20 02:07 -0.00795 121.58866 38966 ft 466 kts 64°
2026-04-20 02:08 0.02197 121.64635 39118 ft 469 kts 64°
2026-04-20 02:08 0.03698 121.67529 39283 ft 468 kts 64°
2026-04-20 02:08 0.05179 121.70386 39369 ft 454 kts 64°
2026-04-20 02:09 0.06615 121.73155 39180 ft 442 kts 64°
2026-04-20 02:09 0.08030 121.75888 38334 ft 445 kts 64°
2026-04-20 02:09 0.09468 121.78671 37239 ft 453 kts 64°
2026-04-20 02:09 0.10904 121.81450 36356 ft 456 kts 64°
2026-04-20 02:10 0.12360 121.84264 35557 ft 457 kts 63°
2026-04-20 02:10 0.13827 121.87099 34764 ft 457 kts 63°
2026-04-20 02:10 0.15298 121.89942 33973 ft 458 kts 63°
2026-04-20 02:10 0.16747 121.92739 33019 ft 459 kts 63°
2026-04-20 02:11 0.18229 121.95599 31960 ft 463 kts 63°
2026-04-20 02:11 0.19721 121.98485 30883 ft 468 kts 63°
2026-04-20 02:11 0.21203 122.01351 29763 ft 473 kts 64°
2026-04-20 02:11 0.22723 122.04290 28486 ft 477 kts 63°
2026-04-20 02:12 0.24252 122.07245 27236 ft 480 kts 63°
2026-04-20 02:12 0.25793 122.10224 25925 ft 485 kts 63°
2026-04-20 02:12 0.27355 122.13242 24587 ft 490 kts 63°
2026-04-20 02:12 0.28913 122.16250 23318 ft 494 kts 63°
2026-04-20 02:13 0.30486 122.19287 22289 ft 487 kts 63°
2026-04-20 02:13 0.32014 122.22235 22015 ft 465 kts 63°
2026-04-20 02:13 0.33464 122.25033 21985 ft 439 kts 63°
2026-04-20 02:13 0.34820 122.27648 21987 ft 416 kts 63°
2026-04-20 02:14 0.36146 122.30209 21986 ft 418 kts 63°
2026-04-20 02:14 0.37486 122.32799 21987 ft 420 kts 63°
2026-04-20 02:14 0.38825 122.35387 21987 ft 419 kts 63°
2026-04-20 02:14 0.40167 122.37978 21989 ft 419 kts 63°
2026-04-20 02:15 0.41507 122.40566 21993 ft 419 kts 63°
2026-04-20 02:15 0.42834 122.43127 21988 ft 419 kts 63°
2026-04-20 02:15 0.44174 122.45713 21990 ft 419 kts 63°
2026-04-20 02:15 0.45518 122.48309 21988 ft 419 kts 63°
2026-04-20 02:16 0.46857 122.50892 21891 ft 417 kts 63°
2026-04-20 02:16 0.48175 122.53437 21374 ft 418 kts 63°
2026-04-20 02:16 0.49523 122.56041 20472 ft 423 kts 63°
2026-04-20 02:16 0.50894 122.58689 19621 ft 433 kts 63°
2026-04-20 02:17 0.52292 122.61388 18657 ft 439 kts 63°
2026-04-20 02:17 0.53708 122.64124 17284 ft 447 kts 63°
2026-04-20 02:17 0.55133 122.66876 16270 ft 444 kts 63°
2026-04-20 02:17 0.56546 122.69602 15405 ft 437 kts 63°
2026-04-20 02:18 0.57917 122.72250 14533 ft 431 kts 63°
2026-04-20 02:18 0.59285 122.74891 13661 ft 424 kts 63°
2026-04-20 02:18 0.60636 122.77500 12708 ft 419 kts 63°
2026-04-20 02:18 0.61934 122.80088 11772 ft 413 kts 68°
2026-04-20 02:19 0.62682 122.82834 10872 ft 407 kts 83°
2026-04-20 02:19 0.62669 122.85637 10009 ft 402 kts 98°
2026-04-20 02:19 0.61889 122.88297 9108 ft 396 kts 115°
2026-04-20 02:19 0.60427 122.90557 8261 ft 389 kts 131°
2026-04-20 02:20 0.58424 122.92347 7446 ft 383 kts 139°
2026-04-20 02:20 0.56689 122.94345 6666 ft 378 kts 122°
2026-04-20 02:20 0.55719 122.96704 6244 ft 364 kts 103°
2026-04-20 02:20 0.55610 122.99165 6061 ft 344 kts 82°
2026-04-20 02:21 0.57834 123.02910 6026 ft 301 kts 36°
2026-04-20 02:21 0.59396 123.04151 6024 ft 282 kts 50°
2026-04-20 02:21 0.60283 123.05830 6031 ft 277 kts 77°
2026-04-20 02:22 0.60315 123.07755 6024 ft 277 kts 103°
2026-04-20 02:22 0.59848 123.09597 6020 ft 274 kts 95°
2026-04-20 02:22 0.60105 123.11488 6019 ft 277 kts 69°
2026-04-20 02:22 0.61183 123.13052 6016 ft 268 kts 41°
2026-04-20 02:23 0.62742 123.13873 6026 ft 254 kts 13°
2026-04-20 02:23 0.64531 123.13834 6023 ft 260 kts 343°
2026-04-20 02:23 0.66084 123.12940 6035 ft 261 kts 315°
2026-04-20 02:23 0.67017 123.11414 6016 ft 254 kts 285°
2026-04-20 02:24 0.67070 123.09757 6015 ft 234 kts 254°
2026-04-20 02:24 0.66344 123.08394 6023 ft 215 kts 229°
2026-04-20 02:24 0.65358 123.07341 6029 ft 199 kts 226°
2026-04-20 02:24 0.64508 123.06336 6016 ft 178 kts 230°
2026-04-20 02:25 0.63779 123.05413 6015 ft 161 kts 230°
2026-04-20 02:25 0.63088 123.04530 6025 ft 164 kts 231°
2026-04-20 02:25 0.62415 123.03620 6033 ft 164 kts 237°
2026-04-20 02:25 0.61940 123.02582 6020 ft 163 kts 253°
2026-04-20 02:26 0.61755 123.01477 6026 ft 165 kts 266°
2026-04-20 02:26 0.61783 123.00335 6017 ft 164 kts 275°
2026-04-20 02:26 0.61912 122.99198 6030 ft 166 kts 277°
2026-04-20 02:26 0.62058 122.98064 6025 ft 164 kts 276°
2026-04-20 02:27 0.62200 122.96936 6021 ft 164 kts 277°
2026-04-20 02:27 0.62343 122.95803 6016 ft 163 kts 277°
2026-04-20 02:27 0.62508 122.94646 5314 ft 181 kts 278°
2026-04-20 02:27 0.62714 122.93294 4041 ft 210 kts 279°
2026-04-20 02:28 0.62949 122.91796 2620 ft 224 kts 279°
2026-04-20 02:28 0.63200 122.90236 1172 ft 228 kts 278°
2026-04-20 02:28 0.63339 122.88702 527 ft 209 kts 271°
2026-04-20 02:28 0.63351 122.87369 335 ft 173 kts 271°
2026-04-20 02:29 0.63487 122.86270 164 ft 153 kts 285°
2026-04-20 02:29 0.63652 122.85349 90 ft 97 kts 263°
2026-04-20 02:29 0.63717 122.84757 93 ft 80 kts 289°
2026-04-20 02:29 0.63786 122.84286 114 ft 36 kts 278°
2026-04-20 02:30 0.63806 122.84144 118 ft 0 kts 277°
2026-04-20 02:30 0.63813 122.84092 120 ft 14 kts 277°
2026-04-20 02:30 0.63828 122.83979 122 ft 19 kts 278°
2026-04-20 02:30 0.63827 122.83855 121 ft 14 kts 247°
2026-04-20 02:31 0.63851 122.83838 119 ft 6 kts 15°
2026-04-20 02:31 0.63853 122.83861 122 ft 6 kts 94°
2026-04-20 02:31 0.63849 122.83918 123 ft 11 kts 94°
2026-04-20 02:31 0.63839 122.84010 124 ft 16 kts 97°
2026-04-20 02:32 0.63822 122.84137 121 ft 21 kts 103°
2026-04-20 02:32 0.63798 122.84273 109 ft 19 kts 97°
2026-04-20 02:32 0.63838 122.84328 109 ft 12 kts 11°
2026-04-20 02:32 0.63925 122.84339 111 ft 8 kts
2026-04-20 02:33 0.63947 122.84369 109 ft 7 kts 72°
2026-04-20 02:33 0.63942 122.84433 109 ft 7 kts 96°
2026-04-20 02:33 0.63937 122.84473 108 ft 0 kts 97°
2026-04-20 02:34 0.63939 122.84479 108 ft 1 kts 65°
2026-04-20 02:34 0.63952 122.84478 107 ft 0 kts
2026-04-20 02:34 0.63989 122.84484 107 ft 0 kts
2026-04-20 02:34 0.64003 122.84485 107 ft 1 kts
2026-04-20 02:35 0.64018 122.84486 102 ft 0 kts
2026-04-20 02:35 0.64025 122.84486 103 ft 0 kts